User: anonymous   Login
Location: Unspecified
(0.0000°N, 0.0000°E)
Time: 07:50:18
(UTC+00:00)
Language:

Explorer 38 - Orbit

View from above orbital plane
View from above orbital plane
View from above satellite
View from above satellite

Ground track
Ground track

The orbit data is extracted from the following two-line orbital elements,

1  3307U 68055A   18112.67318138 -.00000010 +00000-0 +00000-0 0  9999
2  3307 120.8745 040.8931 0012625 176.6932 183.3754 06.42595399168241
Epoch (UTC): 22 April 2018 16:09:22
Eccentricity: 0.0012625
inclination: 120.8745°
perigee height: 5827 km
apogee height: 5858 km
right ascension of ascending node: 40.8931°
argument of perigee: 176.6932°
revolutions per day: 6.42595399
mean anomaly at epoch: 183.3754°
orbit number at epoch: 16824

The dashed part of the orbit path shows where the satellite is in the earth's shadow,  

DLR